STARLINK-30330, 57636

Orbit data source: Space-Track

STARLINK-30330, 57636 is a payload satellite owned by SpaceX/Seattle (US) in LEO that was launched on Thu, 17 Aug 2023 UTC via an FALCON 9 launch vehicle from the Air Force Eastern Test Range (AFETR). Payload-class satellites include a variety of spacecraft equipped with specific instruments for various scientific and technological missions. These include communications satellites like Starlink; space stations such as the ISS; scientific satellites like the Hubble; Earth observation satellites from companies like Planet Labs, Umbra, and HawkEye 360; GPS; miniature CubeSats for education and research; and military/defense satellites.

Loading next visibility...
Identifier
57636, 2023-122E
Orbit
LEO
Country
Flag of USUS
Related business
Manufacturer
SpaceX/Seattle
Mission
Operational Commercial Communications
Bus & Motor
STARLINK V2M, Unknown motor
Mass
730 kg wet, ~700 kg dry
Launch date (UTC)
2023-08-17 (2 years ago)
Launch vehicle
FALCON 9
Launch site
Air Force Eastern Test Range (AFETR)
Object type
Payload
Rocket body
Debris
Shape & HBR
Box + 2 Pan, 14.5 m
Radar Cross Section
33.884 m², Large (>1 m²)

Expand to show TLE details & history
Last TLE update: 14 hours ago

TLE from 14 hours ago
0 STARLINK-30330
1 57636U 23122E   25243.19707659 -.00000160  00000-0  32258-5 0  9990
2 57636  42.9993  49.9877 0000435  80.3896 279.6995 15.02529280113528
Epoch: 2025-08-31T04:43Z
TLE epoch observation values (Epoch: 2025-08-31T04:43:47.417Z)
Latitude
-0.00004°
Longitude
-0.5804°
Altitude
558.827 km
Speed
7.584 km/s
True Right ascension
03h 19m 57s
True Declination
0° 00' 00"
Sunlit
Object was in daylight at epoch
Visualization orbit readout
Latitude
Unknown
Longitude
Unknown
Altitude
Unknown
Speed
Unknown
Apparent Right ascension
Unknown
Apparent Declination
Unknown
Sunlit
N/A
Visualization observer readout
Local Sidereal Time
10:22:39
Azimuth
Unknown
Elevation
Unknown
Doppler factor
Unknown
Orbital elements
Apogee altitude
561.326 km
Perigee altitude
560.722 km
Semi-major axis
6,939.161 km
Eccentricity
0.00004
Inclination
42.9993°
RAAN
49.9877°
Arg. of periapsis
80.3896°
True anomaly
279.69459°
Mean anomaly
279.6995°
Eccentric anomaly
279.69704°
Mean motion
3.75476 °/min
Orbital period
95.88 mins
BSTAR
0.0000032258
Loading maneuver chart data...
Computing Atmospheric mass density...
Loading historical data...
Loading historical data...
Loading historical data...
Loading historical data...
Loading historical data...
Loading historical data...
Loading historical data...

Documentation

Showing up to 5 results
|